#timestamp,LO_Frequency,Hit,StdDev 
1645516815.3,286047000.5,N
1645516835.1,286047001.1,N
1645516855.8,286046999.9,N
1645516875.7,286046999.9,N
1645516895.5,286047000.3,N
1645516915.3,286047000.5,N
1645516935.2,286046998.1,N
1645516955.0,286047000.2,N
1645516955.9,286047000.2,N
1645516975.8,286046998.3,N
1645516995.6,286046999.5,N
1645517015.4,286046999.6,N
1645517035.3,286046999.5,N
1645517055.1,286046997.7,N
1645517075.9,286046996.9,N
1645517125.7,286046999.5,E
1645517135.6,286046999.4,N
1645517155.5,286046998.5,P
1645517175.3,286046998.3,P
1645517195.1,286046998.2,Y
1645517215.9,286047000.6,P
1645517235.7,286047001.0,N
1645517255.6,286047000.5,N
1645517275.4,286047000.9,N
1645517295.2,286046998.6,N
1645517315.1,286047000.2,N
1645517316.0,286047000.2,N
1645517335.8,286046999.9,N
1645517355.6,286047002.4,N
1645517375.5,286047002.2,N
1645517425.3,286047002.4,E
1645517435.3,286046998.1,N
1645517455.1,286046999.5,P
1645517456.0,286046999.5,N
1645517475.8,286046999.1,N
1645517495.7,286046997.0,Y
1645517515.5,286046996.7,P
1645517535.3,286046995.2,P
1645517555.2,286046997.1,N
1645517575.0,286046997.4,N
1645517575.9,286046997.4,N
1645517595.8,286046996.5,Y
1645517615.6,286047002.5,P
1645517635.4,286047002.8,N
1645517655.3,286047000.9,N
1645517675.1,286047000.3,N
1645517695.9,286047000.4,N
1645517715.7,286046999.7,N
1645517735.5,286047001.4,N
1645517755.4,286047004.0,N
1645517775.2,286047003.8,N
1645517795.0,286047005.5,N
1645517795.9,286047005.5,N
1645517815.8,286047003.9,N
1645517835.6,286047003.3,N
1645517855.5,286047003.2,N
1645517875.3,286047005.9,N
1645517895.1,286047005.9,N
1645517915.9,286047001.8,N
1645517935.7,286047002.8,N
1645517955.5,286047000.2,N
1645517975.4,286047002.7,N
1645517995.2,286047002.6,N
1645518015.1,286047002.8,N
1645518016.0,286047002.8,N
1645518035.8,286047002.2,N
1645518055.6,286047004.1,N
1645518075.5,286047001.5,N
1645518095.3,286047002.4,N
1645518115.1,286046999.8,N
1645518135.9,286046999.8,N
1645518155.7,286047000.0,N
1645518175.6,286047001.3,N
1645518195.4,286047004.0,N
1645518215.2,286047001.3,N
1645518235.1,286047000.2,N
1645518236.0,286047000.2,N
1645518255.8,286046999.2,N
1645518275.6,286046998.7,N
1645518295.5,286047000.7,N
1645518315.3,286047001.0,N
1645518335.2,286047000.8,N
1645518355.9,286047001.1,N
1645518375.7,286047000.8,N
1645518395.6,286046999.7,N
1645518415.4,286047000.2,N
1645518435.3,286047000.1,N
1645518455.1,286047001.7,N
1645518475.8,286047004.0,N
1645518495.7,286047003.1,N
1645518515.5,286047005.9,Y
1645518535.4,286047001.4,P
1645518555.2,286047004.4,P
1645518575.5,286047001.4,N
1645518595.4,286047004.4,Y
1645518615.2,286047000.0,P
1645518635.0,286046998.7,N
1645518635.9,286046998.7,N
1645518655.8,286046999.1,N
1645518675.6,286046996.8,N
1645518695.5,286046996.6,N
1645518715.3,286046996.9,N
1645518735.1,286047000.7,N
1645518755.9,286046999.0,N
1645518775.7,286046998.7,N
1645518795.5,286046998.4,N
1645518815.4,286046996.9,N
1645518835.2,286046997.2,N
1645518855.1,286046997.4,N
1645518875.9,286046997.1,N
1645518895.7,286046999.1,N
1645518915.5,286046996.5,N
1645518935.4,286046999.0,N
1645518955.2,286046999.3,N
1645518975.0,286046997.2,N
1645518975.9,286046997.2,N
1645518995.8,286046995.5,Y
1645519015.6,286046996.2,P
1645519035.5,286046997.6,N
1645519055.3,286046997.6,N
1645519075.1,286046995.3,Y
1645519095.9,286046998.1,P
1645519115.7,286047000.5,N
1645519135.5,286047001.9,N
1645519155.4,286047001.7,N
1645519175.2,286047001.5,N
1645519195.1,286047002.5,N
1645519196.0,286047002.5,N
1645519215.8,286047001.5,N
1645519235.6,286047001.6,N
1645519255.5,286047002.1,N
1645519275.3,286047001.5,N
1645519295.1,286047002.1,N
1645519315.9,286047001.3,N
1645519335.7,286047001.3,N
1645519355.6,286047004.3,N
1645519375.4,286047004.0,N
1645519395.2,286047001.8,N
1645519415.1,286047004.3,N
1645519416.0,286047004.3,N
1645519435.8,286047001.7,N
1645519455.7,286047001.3,N
1645519475.5,286047002.1,N
1645519495.4,286047001.5,N
1645519515.2,286047001.8,N
1645519535.0,286047002.6,N
1645519535.9,286047002.6,N
1645519555.8,286047001.9,N
1645519575.6,286047002.1,N
1645519595.4,286047002.6,N
1645519615.3,286047002.3,N
1645519635.1,286047002.3,N
1645519655.9,286047000.2,N
1645519675.7,286047001.5,N
1645519695.5,286047001.6,N
1645519715.4,286047002.0,N
1645519735.2,286047002.4,N
1645519755.1,286047001.9,N
1645519756.0,286047001.9,N
1645519775.8,286047004.4,Y
1645519795.6,286046999.8,P
1645519815.5,286046999.9,N
1645519835.3,286046999.7,N
1645519855.2,286047000.8,N
1645519875.9,286047001.1,N
1645519895.7,286046998.1,N
1645519915.6,286046997.2,N
1645519935.4,286046996.8,N
1645519955.2,286046996.5,N
1645519975.1,286046999.2,N
1645519976.0,286046999.2,N
1645519995.8,286046998.4,N
1645520015.7,286047000.6,N
1645520035.5,286047000.3,N
1645520055.3,286047000.1,N
1645520075.2,286047002.5,N
1645520095.9,286047002.1,N
1645520115.7,286047001.5,N
1645520135.6,286047001.8,N
1645520155.4,286047001.5,N
1645520175.3,286047004.4,N
1645520195.1,286047002.1,N
1645520196.0,286047002.1,N
1645520215.8,286047001.8,N
1645520235.7,286047004.3,N
1645520255.5,286047004.1,N
1645520275.4,286047004.4,N
1645520295.2,286047004.0,N
1645520315.0,286047001.3,N
1645520315.9,286047001.3,N
1645520335.8,286047003.3,N
1645520355.6,286047003.0,N
1645520375.5,286047003.7,N
1645520395.3,286046999.9,N
